Year,Month,Day,Hour,Minute,Value (Times are PST for temperature in C)
2008,03,26,00,01,0.30
2008,03,26,00,02,0.30
2008,03,26,00,03,0.30
2008,03,26,00,04,0.30
2008,03,26,00,05,0.30
2008,03,26,00,06,0.30
2008,03,26,00,07,0.30
2008,03,26,00,09,0.30
2008,03,26,00,10,0.30
2008,03,26,00,11,0.30
2008,03,26,00,12,0.40
2008,03,26,00,13,0.30
2008,03,26,00,14,0.30
2008,03,26,00,16,0.30
2008,03,26,00,17,0.30
2008,03,26,00,18,0.30
2008,03,26,00,21,0.30
2008,03,26,00,22,0.30
2008,03,26,00,23,0.30
2008,03,26,00,24,0.30
2008,03,26,00,26,0.30
2008,03,26,00,27,0.30
2008,03,26,00,28,0.30
2008,03,26,00,29,0.30
2008,03,26,00,31,0.30
2008,03,26,00,33,0.30
2008,03,26,00,35,0.30
2008,03,26,00,36,0.30
2008,03,26,00,38,0.30
2008,03,26,00,39,0.30
2008,03,26,00,41,0.30
2008,03,26,00,42,0.30
2008,03,26,00,43,0.30
2008,03,26,00,44,0.30
2008,03,26,00,45,0.30
2008,03,26,00,46,0.30
2008,03,26,00,47,0.30
2008,03,26,00,49,0.30
2008,03,26,00,50,0.30
2008,03,26,00,51,0.30
2008,03,26,00,53,0.30
2008,03,26,00,54,0.30
2008,03,26,00,56,0.30
2008,03,26,00,57,0.30
2008,03,26,00,58,0.30
2008,03,26,00,59,0.30
2008,03,26,01,00,0.30
2008,03,26,01,01,0.30
2008,03,26,01,02,0.30
2008,03,26,01,03,0.30
2008,03,26,01,04,0.30
2008,03,26,01,05,0.30
2008,03,26,01,06,0.30
2008,03,26,01,07,0.30
2008,03,26,01,08,0.30
2008,03,26,01,09,0.30
2008,03,26,01,10,0.30
2008,03,26,01,11,0.30
2008,03,26,01,12,0.30
2008,03,26,01,13,0.30
2008,03,26,01,14,0.30
2008,03,26,01,15,0.30
2008,03,26,01,16,0.30
2008,03,26,01,18,0.30
2008,03,26,01,19,0.30
2008,03,26,01,20,0.30
2008,03,26,01,21,0.30
2008,03,26,01,22,0.30
2008,03,26,01,23,0.30
2008,03,26,01,24,0.30
2008,03,26,01,25,0.30
2008,03,26,01,26,0.30
2008,03,26,01,27,0.30
2008,03,26,01,28,0.30
2008,03,26,01,30,0.30
2008,03,26,01,31,0.30
2008,03,26,01,32,0.30
2008,03,26,01,34,0.20
2008,03,26,01,35,0.20
2008,03,26,01,36,0.30
2008,03,26,01,37,0.30
2008,03,26,01,38,0.30
2008,03,26,01,40,0.30
2008,03,26,01,41,0.20
2008,03,26,01,42,0.20
2008,03,26,01,43,0.20
2008,03,26,01,45,0.20
2008,03,26,01,46,0.20
2008,03,26,01,47,0.20
2008,03,26,01,48,0.20
2008,03,26,01,49,0.20
2008,03,26,01,50,0.20
2008,03,26,01,51,0.20
2008,03,26,01,53,0.20
2008,03,26,01,54,0.20
2008,03,26,01,55,0.20
2008,03,26,01,56,0.20
2008,03,26,01,57,0.20
2008,03,26,01,59,0.20
2008,03,26,02,00,0.20
2008,03,26,02,01,0.20
2008,03,26,02,02,0.20
2008,03,26,02,03,0.20
2008,03,26,02,04,0.20
2008,03,26,02,06,0.20
2008,03,26,02,08,0.20
2008,03,26,02,09,0.20
2008,03,26,02,10,0.20
2008,03,26,02,11,0.20
2008,03,26,02,12,0.20
2008,03,26,02,13,0.20
2008,03,26,02,14,0.20
2008,03,26,02,15,0.20
2008,03,26,02,16,0.20
2008,03,26,02,18,0.20
2008,03,26,02,19,0.20
2008,03,26,02,20,0.20
2008,03,26,02,21,0.20
2008,03,26,02,22,0.20
2008,03,26,02,23,0.20
2008,03,26,02,25,0.20
2008,03,26,02,26,0.20
2008,03,26,02,27,0.20
2008,03,26,02,28,0.20
2008,03,26,02,29,0.20
2008,03,26,02,30,0.20
2008,03,26,02,31,0.10
2008,03,26,02,32,0.10
2008,03,26,02,33,0.10
2008,03,26,02,34,0.10
2008,03,26,02,35,0.10
2008,03,26,02,36,0.10
2008,03,26,02,37,0.10
2008,03,26,02,39,0.10
2008,03,26,02,40,0.10
2008,03,26,02,41,0.10
2008,03,26,02,42,0.20
2008,03,26,02,43,0.10
2008,03,26,02,45,0.20
2008,03,26,02,46,0.20
2008,03,26,02,47,0.20
2008,03,26,02,48,0.20
2008,03,26,02,50,0.20
2008,03,26,02,51,0.20
2008,03,26,02,52,0.20
2008,03,26,02,53,0.20
2008,03,26,02,54,0.20
2008,03,26,02,55,0.20
2008,03,26,02,56,0.20
2008,03,26,02,57,0.20
2008,03,26,02,58,0.20
2008,03,26,03,00,0.20
2008,03,26,03,01,0.20
2008,03,26,03,02,0.20
2008,03,26,03,04,0.20
2008,03,26,03,05,0.20
2008,03,26,03,06,0.20
2008,03,26,03,07,0.20
2008,03,26,03,08,0.20
2008,03,26,03,09,0.20
2008,03,26,03,10,0.20
2008,03,26,03,11,0.20
2008,03,26,03,12,0.20
2008,03,26,03,13,0.20
2008,03,26,03,14,0.20
2008,03,26,03,16,0.20
2008,03,26,03,18,0.20
2008,03,26,03,19,0.20
2008,03,26,03,20,0.20
2008,03,26,03,21,0.20
2008,03,26,03,22,0.20
2008,03,26,03,23,0.20
2008,03,26,03,24,0.20
2008,03,26,03,25,0.20
2008,03,26,03,26,0.20
2008,03,26,03,27,0.20
2008,03,26,03,28,0.20
2008,03,26,03,29,0.20
2008,03,26,03,31,0.30
2008,03,26,03,32,0.20
2008,03,26,03,33,0.30
2008,03,26,03,34,0.30
2008,03,26,03,35,0.30
2008,03,26,03,36,0.30
2008,03,26,03,37,0.30
2008,03,26,03,38,0.30
2008,03,26,03,39,0.30
2008,03,26,03,40,0.30
2008,03,26,03,41,0.30
2008,03,26,03,42,0.30
2008,03,26,03,43,0.30
2008,03,26,03,45,0.30
2008,03,26,03,47,0.30
2008,03,26,03,49,0.30
2008,03,26,03,50,0.30
2008,03,26,03,51,0.30
2008,03,26,03,52,0.30
2008,03,26,03,53,0.30
2008,03,26,03,54,0.30
2008,03,26,03,55,0.30
2008,03,26,03,56,0.30
2008,03,26,03,57,0.30
2008,03,26,03,58,0.30
2008,03,26,03,59,0.30
2008,03,26,04,00,0.30
2008,03,26,04,01,0.30
2008,03,26,04,02,0.40
2008,03,26,04,04,0.40
2008,03,26,04,05,0.40
2008,03,26,04,06,0.40
2008,03,26,04,07,0.40
2008,03,26,04,08,0.40
2008,03,26,04,09,0.40
2008,03,26,04,10,0.40
2008,03,26,04,11,0.40
2008,03,26,04,12,0.40
2008,03,26,04,13,0.50
2008,03,26,04,14,0.50
2008,03,26,04,15,0.50
2008,03,26,04,16,0.50
2008,03,26,04,17,0.50
2008,03,26,04,18,0.50
2008,03,26,04,19,0.50
2008,03,26,04,20,0.50
2008,03,26,04,21,0.50
2008,03,26,04,22,0.50
2008,03,26,04,23,0.50
2008,03,26,04,25,0.60
2008,03,26,04,26,0.60
2008,03,26,04,27,0.60
2008,03,26,04,28,0.60
2008,03,26,04,29,0.60
2008,03,26,04,30,0.60
2008,03,26,04,31,0.60
2008,03,26,04,32,0.60
2008,03,26,04,33,0.60
2008,03,26,04,34,0.60
2008,03,26,04,35,0.60
2008,03,26,04,36,0.60
2008,03,26,04,37,0.60
2008,03,26,04,38,0.60
2008,03,26,04,39,0.60
2008,03,26,04,40,0.60
2008,03,26,04,41,0.60
2008,03,26,04,42,0.60
2008,03,26,04,43,0.60
2008,03,26,04,45,0.60
2008,03,26,04,46,0.60
2008,03,26,04,47,0.60
2008,03,26,04,48,0.60
2008,03,26,04,49,0.70
2008,03,26,04,50,0.70
2008,03,26,04,51,0.70
2008,03,26,04,52,0.70
2008,03,26,04,53,0.70
2008,03,26,04,55,0.70
2008,03,26,04,56,0.70
2008,03,26,04,57,0.80
2008,03,26,04,58,0.80
2008,03,26,04,59,0.80
2008,03,26,05,00,0.80
2008,03,26,05,01,0.80
2008,03,26,05,03,0.80
2008,03,26,05,04,0.80
2008,03,26,05,05,0.80
2008,03,26,05,06,0.80
2008,03,26,05,07,0.90
2008,03,26,05,08,0.90
2008,03,26,05,09,0.90
2008,03,26,05,10,0.90
2008,03,26,05,11,0.90
2008,03,26,05,12,1.00
2008,03,26,05,13,1.00
2008,03,26,05,14,1.00
2008,03,26,05,15,1.10
2008,03,26,05,16,1.10
2008,03,26,05,17,1.10
2008,03,26,05,18,1.10
2008,03,26,05,19,1.10
2008,03,26,05,20,1.10
2008,03,26,05,21,1.10
2008,03,26,05,22,1.10
2008,03,26,05,23,1.20
2008,03,26,05,24,1.20
2008,03,26,05,25,1.20
2008,03,26,05,26,1.20
2008,03,26,05,27,1.20
2008,03,26,05,28,1.20
2008,03,26,05,29,1.20
2008,03,26,05,30,1.20
2008,03,26,05,31,1.20
2008,03,26,05,32,1.20
2008,03,26,05,33,1.20
2008,03,26,05,34,1.20
2008,03,26,05,35,1.20
2008,03,26,05,36,1.20
2008,03,26,05,38,1.20
2008,03,26,05,39,1.20
2008,03,26,05,40,1.20
2008,03,26,05,41,1.20
2008,03,26,05,42,1.20
2008,03,26,05,43,1.20
2008,03,26,05,45,1.20
2008,03,26,05,46,1.30
2008,03,26,05,47,1.30
2008,03,26,05,48,1.30
2008,03,26,05,50,1.30
2008,03,26,05,51,1.30
2008,03,26,05,52,1.30
2008,03,26,05,53,1.30
2008,03,26,05,54,1.30
2008,03,26,05,55,1.30
2008,03,26,05,56,1.30
2008,03,26,05,57,1.30
2008,03,26,05,58,1.30
2008,03,26,05,59,1.20
2008,03,26,06,00,1.20
2008,03,26,06,01,1.20
2008,03,26,06,02,1.20
2008,03,26,06,03,1.20
2008,03,26,06,04,1.20
2008,03,26,06,05,1.10
2008,03,26,06,06,1.10
2008,03,26,06,07,1.10
2008,03,26,06,08,1.10
2008,03,26,06,09,1.10
2008,03,26,06,10,1.10
2008,03,26,06,11,1.10
2008,03,26,06,12,1.10
2008,03,26,06,13,1.10
2008,03,26,06,14,1.10
2008,03,26,06,15,1.10
2008,03,26,06,16,1.10
2008,03,26,06,17,1.10
2008,03,26,06,18,1.10
2008,03,26,06,19,1.10
2008,03,26,06,20,1.10
2008,03,26,06,21,1.10
2008,03,26,06,22,1.10
2008,03,26,06,23,1.10
2008,03,26,06,24,1.10
2008,03,26,06,25,1.20
2008,03,26,06,26,1.20
2008,03,26,06,27,1.20
2008,03,26,06,28,1.20
2008,03,26,06,29,1.20
2008,03,26,06,30,1.20
2008,03,26,06,31,1.20
2008,03,26,06,32,1.20
2008,03,26,06,33,1.20
2008,03,26,06,35,1.20
2008,03,26,06,36,1.20
2008,03,26,06,37,1.20
2008,03,26,06,39,1.20
2008,03,26,06,40,1.20
2008,03,26,06,41,1.20
2008,03,26,06,42,1.20
2008,03,26,06,43,1.20
2008,03,26,06,44,1.10
2008,03,26,06,45,1.10
2008,03,26,06,46,1.10
2008,03,26,06,47,1.10
2008,03,26,06,48,1.10
2008,03,26,06,49,1.10
2008,03,26,06,50,1.10
2008,03,26,06,51,1.10
2008,03,26,06,52,1.10
2008,03,26,06,53,1.00
2008,03,26,06,54,1.00
2008,03,26,06,55,1.00
2008,03,26,06,56,1.00
2008,03,26,06,57,0.90
2008,03,26,06,58,0.90
2008,03,26,07,00,0.90
2008,03,26,07,01,0.80
2008,03,26,07,02,0.80
2008,03,26,07,03,0.80
2008,03,26,07,04,0.80
2008,03,26,07,05,0.80
2008,03,26,07,06,0.80
2008,03,26,07,07,0.80
2008,03,26,07,08,0.70
2008,03,26,07,09,0.70
2008,03,26,07,11,0.70
2008,03,26,07,13,0.70
2008,03,26,07,15,0.70
2008,03,26,07,16,0.70
2008,03,26,07,17,0.70
2008,03,26,07,18,0.70
2008,03,26,07,19,0.70
2008,03,26,07,20,0.70
2008,03,26,07,21,0.70
2008,03,26,07,23,0.60
2008,03,26,07,24,0.60
2008,03,26,07,25,0.60
2008,03,26,07,26,0.70
2008,03,26,07,27,0.60
2008,03,26,07,28,0.60
2008,03,26,07,29,0.60
2008,03,26,07,30,0.60
2008,03,26,07,31,0.60
2008,03,26,07,32,0.60
2008,03,26,07,33,0.70
2008,03,26,07,35,0.70
2008,03,26,07,36,0.70
2008,03,26,07,37,0.70
2008,03,26,07,39,0.70
2008,03,26,07,40,0.70
2008,03,26,07,41,0.70
2008,03,26,07,42,0.70
2008,03,26,07,43,0.80
2008,03,26,07,44,0.80
2008,03,26,07,46,0.80
2008,03,26,07,47,0.70
2008,03,26,07,48,0.80
2008,03,26,07,49,0.70
2008,03,26,07,51,0.70
2008,03,26,07,52,0.70
2008,03,26,07,54,0.70
2008,03,26,07,55,0.70
2008,03,26,07,56,0.70
2008,03,26,07,57,0.70
2008,03,26,07,58,0.70
2008,03,26,07,59,0.70
2008,03,26,08,00,0.70
2008,03,26,08,01,0.70
2008,03,26,08,02,0.80
2008,03,26,08,03,0.80
2008,03,26,08,04,0.80
2008,03,26,08,05,0.90
2008,03,26,08,06,0.90
2008,03,26,08,07,0.90
2008,03,26,08,08,1.00
2008,03,26,08,09,1.10
2008,03,26,08,10,1.10
2008,03,26,08,11,1.10
2008,03,26,08,12,1.10
2008,03,26,08,13,1.10
2008,03,26,08,15,1.20
2008,03,26,08,16,1.20
2008,03,26,08,17,1.20
2008,03,26,08,18,1.20
2008,03,26,08,19,1.30
2008,03,26,08,20,1.30
2008,03,26,08,21,1.30
2008,03,26,08,22,1.30
2008,03,26,08,23,1.30
2008,03,26,08,24,1.30
2008,03,26,08,25,1.30
2008,03,26,08,26,1.30
2008,03,26,08,27,1.30
2008,03,26,08,28,1.30
2008,03,26,08,29,1.30
2008,03,26,08,30,1.30
2008,03,26,08,31,1.30
2008,03,26,08,32,1.40
2008,03,26,08,33,1.40
2008,03,26,08,34,1.40
2008,03,26,08,35,1.40
2008,03,26,08,36,1.50
2008,03,26,08,37,1.50
2008,03,26,08,38,1.50
2008,03,26,08,39,1.60
2008,03,26,08,40,1.60
2008,03,26,08,41,1.60
2008,03,26,08,42,1.60
2008,03,26,08,43,1.60
2008,03,26,08,44,1.60
2008,03,26,08,46,1.70
2008,03,26,08,47,1.70
2008,03,26,08,48,1.70
2008,03,26,08,49,1.70
2008,03,26,08,50,1.70
2008,03,26,08,51,1.70
2008,03,26,08,52,1.70
2008,03,26,08,53,1.70
2008,03,26,08,54,1.80
2008,03,26,08,55,1.80
2008,03,26,08,56,1.80
2008,03,26,08,57,1.80
2008,03,26,08,59,1.90
2008,03,26,09,00,1.90
2008,03,26,09,01,2.00
2008,03,26,09,02,2.10
2008,03,26,09,03,2.10
2008,03,26,09,04,2.10
2008,03,26,09,05,2.10
2008,03,26,09,06,2.20
2008,03,26,09,07,2.20
2008,03,26,09,08,2.20
2008,03,26,09,09,2.30
2008,03,26,09,10,2.30
2008,03,26,09,11,2.30
2008,03,26,09,12,2.30
2008,03,26,09,13,2.40
2008,03,26,09,14,2.40
2008,03,26,09,16,2.40
2008,03,26,09,17,2.40
2008,03,26,09,18,2.40
2008,03,26,09,19,2.50
2008,03,26,09,20,2.50
2008,03,26,09,21,2.50
2008,03,26,09,23,2.50
2008,03,26,09,24,2.60
2008,03,26,09,25,2.60
2008,03,26,09,26,2.60
2008,03,26,09,27,2.60
2008,03,26,09,28,2.60
2008,03,26,09,29,2.60
2008,03,26,09,30,2.60
2008,03,26,09,31,2.60
2008,03,26,09,32,2.60
2008,03,26,09,33,2.60
2008,03,26,09,34,2.60
2008,03,26,09,35,2.60
2008,03,26,09,36,2.60
2008,03,26,09,37,2.60
2008,03,26,09,38,2.60
2008,03,26,09,39,2.60
2008,03,26,09,41,2.50
2008,03,26,09,42,2.50
2008,03,26,09,43,2.50
2008,03,26,09,44,2.40
2008,03,26,09,45,2.40
2008,03,26,09,46,2.40
2008,03,26,09,47,2.40
2008,03,26,09,48,2.40
2008,03,26,09,50,2.30
2008,03,26,09,52,2.30
2008,03,26,09,53,2.30
2008,03,26,09,54,2.30
2008,03,26,09,55,2.30
2008,03,26,09,56,2.30
2008,03,26,09,57,2.30
2008,03,26,09,58,2.40
2008,03,26,09,59,2.40
2008,03,26,10,01,2.40
2008,03,26,10,02,2.40
2008,03,26,10,04,2.40
2008,03,26,10,42,2.20
2008,03,26,10,43,2.20
2008,03,26,10,45,2.10
2008,03,26,10,46,2.10
2008,03,26,10,47,2.10
2008,03,26,10,48,2.10
2008,03,26,10,49,2.00
2008,03,26,10,50,1.90
2008,03,26,10,51,1.90
2008,03,26,10,52,1.90
2008,03,26,10,53,1.80
2008,03,26,10,54,1.80
2008,03,26,10,55,1.80
2008,03,26,10,57,1.70
2008,03,26,10,58,1.70
2008,03,26,10,59,1.60
2008,03,26,11,01,1.60
2008,03,26,11,02,1.60
2008,03,26,11,03,1.60
2008,03,26,11,05,1.70
2008,03,26,11,07,1.70
2008,03,26,11,08,1.70
2008,03,26,11,09,1.70
2008,03,26,11,10,1.80
2008,03,26,11,12,1.80
2008,03,26,11,13,1.80
2008,03,26,11,14,1.80
2008,03,26,11,16,1.90
2008,03,26,11,17,1.90
2008,03,26,11,18,1.90
2008,03,26,11,19,2.00
2008,03,26,11,20,2.00
2008,03,26,11,21,2.10
2008,03,26,11,22,2.10
2008,03,26,11,23,2.10
2008,03,26,11,24,2.10
2008,03,26,11,25,2.10
2008,03,26,11,26,2.10
2008,03,26,11,27,2.10
2008,03,26,11,28,2.10
2008,03,26,11,29,2.10
2008,03,26,11,30,2.10
2008,03,26,11,32,2.20
2008,03,26,11,33,2.20
2008,03,26,11,34,2.20
2008,03,26,11,35,2.20
2008,03,26,11,36,2.20
2008,03,26,11,37,2.20
2008,03,26,11,38,2.30
2008,03,26,11,39,2.30
2008,03,26,11,40,2.30
2008,03,26,11,41,2.30
2008,03,26,11,42,2.30
2008,03,26,11,43,2.40
2008,03,26,11,45,2.40
2008,03,26,11,47,2.60
2008,03,26,11,48,2.60
2008,03,26,11,49,2.70
2008,03,26,11,50,2.70
2008,03,26,11,51,2.80
2008,03,26,11,53,2.90
2008,03,26,11,54,2.90
2008,03,26,11,55,3.00
2008,03,26,11,56,3.10
2008,03,26,11,57,3.10
2008,03,26,11,58,3.10
2008,03,26,11,59,3.20
2008,03,26,12,00,3.20
2008,03,26,12,01,3.30
2008,03,26,12,02,3.30
2008,03,26,12,03,3.30
2008,03,26,12,04,3.40
2008,03,26,12,05,3.40
2008,03,26,12,06,3.50
2008,03,26,12,07,3.60
2008,03,26,12,08,3.70
2008,03,26,12,09,3.70
2008,03,26,12,10,3.80
2008,03,26,12,11,3.80
2008,03,26,12,12,3.90
2008,03,26,12,13,3.90
2008,03,26,12,15,4.10
2008,03,26,12,16,4.10
2008,03,26,12,17,4.10
2008,03,26,12,19,4.10
2008,03,26,12,20,4.20
2008,03,26,12,21,4.20
2008,03,26,12,22,4.20
2008,03,26,12,24,4.30
2008,03,26,12,25,4.30
2008,03,26,12,27,4.30
2008,03,26,12,28,4.40
2008,03,26,12,30,4.50
2008,03,26,12,31,4.50
2008,03,26,12,32,4.60
2008,03,26,12,33,4.60
2008,03,26,12,34,4.70
2008,03,26,12,35,4.70
2008,03,26,12,36,4.80
2008,03,26,12,37,4.80
2008,03,26,12,38,4.90
2008,03,26,12,39,4.90
2008,03,26,12,40,5.10
2008,03,26,12,42,5.20
2008,03,26,12,43,5.20
2008,03,26,12,45,5.30
2008,03,26,12,47,5.50
2008,03,26,12,48,5.60
2008,03,26,12,49,5.60
2008,03,26,12,50,5.70
2008,03,26,12,51,5.70
2008,03,26,12,52,5.80
2008,03,26,12,53,5.80
2008,03,26,12,54,5.80
2008,03,26,12,55,5.90
2008,03,26,12,56,5.90
2008,03,26,12,57,5.90
2008,03,26,12,58,5.90
2008,03,26,12,59,6.00
2008,03,26,13,00,6.00
2008,03,26,13,01,6.00
2008,03,26,13,02,6.00
2008,03,26,13,03,6.00
2008,03,26,13,04,6.00
2008,03,26,13,05,6.00
2008,03,26,13,06,6.00
2008,03,26,13,07,6.00
2008,03,26,13,08,6.10
2008,03,26,13,09,6.10
2008,03,26,13,10,6.10
2008,03,26,13,11,6.10
2008,03,26,13,12,6.20
2008,03,26,13,13,6.20
2008,03,26,13,15,6.20
2008,03,26,13,16,6.30
2008,03,26,13,17,6.30
2008,03,26,13,18,6.30
2008,03,26,13,19,6.30
2008,03,26,13,20,6.30
2008,03,26,13,21,6.30
2008,03,26,13,22,6.30
2008,03,26,13,23,6.30
2008,03,26,13,24,6.20
2008,03,26,13,25,6.20
2008,03,26,13,26,6.20
2008,03,26,13,27,6.20
2008,03,26,13,29,6.20
2008,03,26,13,30,6.20
2008,03,26,13,31,6.10
2008,03,26,13,32,6.10
2008,03,26,13,33,6.10
2008,03,26,13,34,6.10
2008,03,26,13,35,6.10
2008,03,26,13,36,6.10
2008,03,26,13,37,6.10
2008,03,26,13,38,6.00
2008,03,26,13,39,6.00
2008,03,26,13,40,6.00
2008,03,26,13,41,6.00
2008,03,26,13,43,6.00
2008,03,26,13,45,5.90
2008,03,26,13,47,5.90
2008,03,26,13,48,5.90
2008,03,26,13,49,5.80
2008,03,26,13,50,5.80
2008,03,26,13,51,5.80
2008,03,26,13,52,5.90
2008,03,26,13,53,5.90
2008,03,26,13,54,5.90
2008,03,26,13,55,5.90
2008,03,26,13,56,5.90
2008,03,26,13,57,5.90
2008,03,26,13,58,6.00
2008,03,26,14,00,6.10
2008,03,26,14,01,6.10
2008,03,26,14,02,6.00
2008,03,26,14,03,6.00
2008,03,26,14,04,6.00
2008,03,26,14,05,6.00
2008,03,26,14,06,6.00
2008,03,26,14,07,5.90
2008,03,26,14,08,5.90
2008,03,26,14,09,5.90
2008,03,26,14,10,5.90
2008,03,26,14,11,6.00
2008,03,26,14,12,6.00
2008,03,26,14,13,6.10
2008,03,26,14,14,6.10
2008,03,26,14,16,6.20
2008,03,26,14,17,6.20
2008,03,26,14,18,6.30
2008,03,26,14,19,6.30
2008,03,26,14,20,6.30
2008,03,26,14,21,6.40
2008,03,26,14,22,6.40
2008,03,26,14,23,6.40
2008,03,26,14,24,6.40
2008,03,26,14,25,6.50
2008,03,26,14,26,6.60
2008,03,26,14,27,6.60
2008,03,26,14,28,6.70
2008,03,26,14,30,6.70
2008,03,26,14,31,6.70
2008,03,26,14,32,6.70
2008,03,26,14,33,6.70
2008,03,26,14,34,6.70
2008,03,26,14,35,6.70
2008,03,26,14,36,6.70
2008,03,26,14,37,6.70
2008,03,26,14,38,6.70
2008,03,26,14,39,6.60
2008,03,26,14,40,6.60
2008,03,26,14,41,6.60
2008,03,26,14,42,6.60
2008,03,26,14,43,6.60
2008,03,26,14,44,6.60
2008,03,26,14,45,6.60
2008,03,26,14,46,6.60
2008,03,26,14,47,6.70
2008,03,26,14,48,6.70
2008,03,26,14,49,6.70
2008,03,26,14,50,6.80
2008,03,26,14,51,6.80
2008,03,26,14,52,6.90
2008,03,26,14,53,6.90
2008,03,26,14,54,7.00
2008,03,26,14,55,7.10
2008,03,26,14,56,7.10
2008,03,26,14,57,7.20
2008,03,26,14,58,7.20
2008,03,26,15,00,7.30
2008,03,26,15,01,7.40
2008,03,26,15,02,7.40
2008,03,26,15,03,7.40
2008,03,26,15,04,7.40
2008,03,26,15,05,7.40
2008,03,26,15,06,7.40
2008,03,26,15,07,7.30
2008,03,26,15,08,7.30
2008,03,26,15,09,7.20
2008,03,26,15,10,7.20
2008,03,26,15,11,7.10
2008,03,26,15,12,7.00
2008,03,26,15,13,6.90
2008,03,26,15,14,6.80
2008,03,26,15,19,6.30
2008,03,26,15,20,6.30
2008,03,26,15,21,6.20
2008,03,26,15,22,6.10
2008,03,26,15,23,6.00
2008,03,26,15,24,5.90
2008,03,26,15,25,5.80
2008,03,26,15,26,5.80
2008,03,26,15,27,5.70
2008,03,26,15,28,5.60
2008,03,26,15,29,5.50
2008,03,26,15,30,5.50
2008,03,26,15,31,5.40
2008,03,26,15,32,5.40
2008,03,26,15,33,5.30
2008,03,26,15,34,5.30
2008,03,26,15,35,5.30
2008,03,26,15,36,5.20
2008,03,26,15,37,5.20
2008,03,26,15,38,5.20
2008,03,26,15,39,5.20
2008,03,26,15,40,5.20
2008,03,26,15,41,5.10
2008,03,26,15,42,5.10
2008,03,26,15,44,5.10
2008,03,26,15,45,5.10
2008,03,26,15,46,5.10
2008,03,26,15,47,5.10
2008,03,26,15,48,5.10
2008,03,26,15,49,5.10
2008,03,26,15,50,5.10
2008,03,26,15,51,5.10
2008,03,26,15,53,5.00
2008,03,26,15,55,5.00
2008,03,26,15,56,5.10
2008,03,26,15,57,5.10
2008,03,26,15,58,5.00
2008,03,26,15,59,4.90
2008,03,26,16,00,4.90
2008,03,26,16,01,4.90
2008,03,26,16,02,4.80
2008,03,26,16,03,4.80
2008,03,26,16,04,4.80
2008,03,26,16,05,4.70
2008,03,26,16,06,4.70
2008,03,26,16,07,4.70
2008,03,26,16,08,4.70
2008,03,26,16,09,4.70
2008,03,26,16,10,4.70
2008,03,26,16,11,4.60
2008,03,26,16,12,4.60
2008,03,26,16,13,4.60
2008,03,26,16,15,4.70
2008,03,26,16,16,4.70
2008,03,26,16,17,4.70
2008,03,26,16,18,4.70
2008,03,26,16,19,4.70
2008,03,26,16,20,4.70
2008,03,26,16,21,4.70
2008,03,26,16,22,4.70
2008,03,26,16,23,4.70
2008,03,26,16,24,4.70
2008,03,26,16,25,4.80
2008,03,26,16,26,4.80
2008,03,26,16,27,4.80
2008,03,26,16,28,4.90
2008,03,26,16,29,4.90
2008,03,26,16,30,5.00
2008,03,26,16,31,5.10
2008,03,26,16,32,5.10
2008,03,26,16,33,5.20
2008,03,26,16,34,5.20
2008,03,26,16,36,5.30
2008,03,26,16,37,5.30
2008,03,26,16,38,5.30
2008,03,26,16,39,5.30
2008,03,26,16,40,5.30
2008,03,26,16,41,5.40
2008,03,26,16,43,5.50
2008,03,26,16,44,5.60
2008,03,26,16,45,5.60
2008,03,26,16,46,5.70
2008,03,26,16,47,5.70
2008,03,26,16,48,5.70
2008,03,26,16,49,5.80
2008,03,26,16,50,5.80
2008,03,26,16,51,5.80
2008,03,26,16,52,5.80
2008,03,26,16,53,5.90
2008,03,26,16,54,5.90
2008,03,26,16,55,6.00
2008,03,26,16,56,6.00
2008,03,26,16,57,6.00
2008,03,26,16,58,6.00
2008,03,26,16,59,6.00
2008,03,26,17,00,6.00
2008,03,26,17,01,5.90
2008,03,26,17,02,6.00
2008,03,26,17,03,6.00
2008,03,26,17,04,6.00
2008,03,26,17,05,6.00
2008,03,26,17,06,6.00
2008,03,26,17,07,6.10
2008,03,26,17,08,6.10
2008,03,26,17,09,6.10
2008,03,26,17,10,6.20
2008,03,26,17,11,6.20
2008,03,26,17,12,6.20
2008,03,26,17,13,6.20
2008,03,26,17,14,6.20
2008,03,26,17,15,6.20
2008,03,26,17,16,6.20
2008,03,26,17,17,6.20
2008,03,26,17,18,6.10
2008,03,26,17,19,6.10
2008,03,26,17,20,6.10
2008,03,26,17,21,6.00
2008,03,26,17,22,5.90
2008,03,26,17,23,5.90
2008,03,26,17,24,5.90
2008,03,26,17,25,5.90
2008,03,26,17,27,5.80
2008,03,26,17,29,5.90
2008,03,26,17,30,5.90
2008,03,26,17,31,5.90
2008,03,26,17,32,5.90
2008,03,26,17,33,5.90
2008,03,26,17,34,5.90
2008,03,26,17,35,5.90
2008,03,26,17,36,5.90
2008,03,26,17,37,5.90
2008,03,26,17,38,5.90
2008,03,26,17,39,5.90
2008,03,26,17,40,5.90
2008,03,26,17,41,5.80
2008,03,26,17,42,5.80
2008,03,26,17,43,5.80
2008,03,26,17,45,5.80
2008,03,26,17,46,5.70
2008,03,26,17,47,5.70
2008,03,26,17,48,5.70
2008,03,26,17,49,5.70
2008,03,26,17,50,5.70
2008,03,26,17,51,5.70
2008,03,26,17,52,5.60
2008,03,26,17,53,5.60
2008,03,26,17,54,5.60
2008,03,26,17,56,5.60
2008,03,26,17,57,5.60
2008,03,26,17,58,5.60
2008,03,26,17,59,5.60
2008,03,26,18,00,5.60
2008,03,26,18,01,5.50
2008,03,26,18,02,5.40
2008,03,26,18,03,5.40
2008,03,26,18,04,5.40
2008,03,26,18,05,5.30
2008,03,26,18,06,5.30
2008,03,26,18,07,5.30
2008,03,26,18,08,5.20
2008,03,26,18,09,5.20
2008,03,26,18,10,5.10
2008,03,26,18,11,5.10
2008,03,26,18,12,5.10
2008,03,26,18,13,5.00
2008,03,26,18,14,4.90
2008,03,26,18,15,4.90
2008,03,26,18,16,4.90
2008,03,26,18,17,4.80
2008,03,26,18,18,4.80
2008,03,26,18,19,4.80
2008,03,26,18,20,4.80
2008,03,26,18,21,4.80
2008,03,26,18,22,4.80
2008,03,26,18,23,4.80
2008,03,26,18,24,4.80
2008,03,26,18,25,4.80
2008,03,26,18,26,4.80
2008,03,26,18,27,4.80
2008,03,26,18,28,4.80
2008,03,26,18,29,4.90
2008,03,26,18,30,4.90
2008,03,26,18,31,4.90
2008,03,26,18,32,5.00
2008,03,26,18,33,5.00
2008,03,26,18,34,5.10
2008,03,26,18,35,5.10
2008,03,26,18,36,5.10
2008,03,26,18,37,5.10
2008,03,26,18,38,5.10
2008,03,26,18,39,5.10
2008,03,26,18,40,5.10
2008,03,26,18,41,5.10
2008,03,26,18,42,5.10
2008,03,26,18,43,5.10
2008,03,26,18,44,5.10
2008,03,26,18,45,5.10
2008,03,26,18,46,5.10
2008,03,26,18,47,5.10
2008,03,26,18,48,5.10
2008,03,26,18,49,5.10
2008,03,26,18,50,5.10
2008,03,26,18,51,5.10
2008,03,26,18,52,5.10
2008,03,26,18,53,5.10
2008,03,26,18,54,5.10
2008,03,26,18,55,5.00
2008,03,26,18,56,5.00
2008,03,26,18,57,4.90
2008,03,26,18,58,4.90
2008,03,26,18,59,4.80
2008,03,26,19,00,4.80
2008,03,26,19,01,4.80
2008,03,26,19,02,4.70
2008,03,26,19,03,4.70
2008,03,26,19,04,4.60
2008,03,26,19,05,4.60
2008,03,26,19,06,4.50
2008,03,26,19,07,4.50
2008,03,26,19,08,4.40
2008,03,26,19,09,4.40
2008,03,26,19,10,4.40
2008,03,26,19,11,4.30
2008,03,26,19,12,4.30
2008,03,26,19,13,4.30
2008,03,26,19,15,4.20
2008,03,26,19,16,4.20
2008,03,26,19,17,4.20
2008,03,26,19,18,4.20
2008,03,26,19,19,4.20
2008,03,26,19,20,4.20
2008,03,26,19,21,4.10
2008,03,26,19,22,4.10
2008,03,26,19,23,4.10
2008,03,26,19,24,4.10
2008,03,26,19,25,4.10
2008,03,26,19,26,4.10
2008,03,26,19,27,4.10
2008,03,26,19,28,4.10
2008,03,26,19,29,4.10
2008,03,26,19,30,4.10
2008,03,26,19,31,4.10
2008,03,26,19,32,4.10
2008,03,26,19,33,4.10
2008,03,26,19,34,4.10
2008,03,26,19,35,4.10
2008,03,26,19,36,4.10
2008,03,26,19,37,4.00
2008,03,26,19,38,4.00
2008,03,26,19,39,4.00
2008,03,26,19,40,4.00
2008,03,26,19,41,4.00
2008,03,26,19,42,4.00
2008,03,26,19,43,3.90
2008,03,26,19,44,3.90
2008,03,26,19,45,3.90
2008,03,26,19,46,3.90
2008,03,26,19,47,3.90
2008,03,26,19,48,3.90
2008,03,26,19,49,3.80
2008,03,26,19,50,3.80
2008,03,26,19,51,3.80
2008,03,26,19,52,3.80
2008,03,26,19,53,3.80
2008,03,26,19,54,3.80
2008,03,26,19,55,3.70
2008,03,26,19,56,3.70
2008,03,26,19,57,3.70
2008,03,26,19,58,3.60
2008,03,26,20,00,3.60
2008,03,26,20,01,3.60
2008,03,26,20,02,3.60
2008,03,26,20,03,3.60
2008,03,26,20,04,3.50
2008,03,26,20,05,3.50
2008,03,26,20,06,3.50
2008,03,26,20,07,3.50
2008,03,26,20,08,3.40
2008,03,26,20,09,3.50
2008,03,26,20,10,3.40
2008,03,26,20,11,3.40
2008,03,26,20,12,3.40
2008,03,26,20,13,3.40
2008,03,26,20,14,3.40
2008,03,26,20,15,3.40
2008,03,26,20,16,3.40
2008,03,26,20,17,3.40
2008,03,26,20,18,3.40
2008,03,26,20,19,3.40
2008,03,26,20,20,3.40
2008,03,26,20,21,3.40
2008,03,26,20,22,3.40
2008,03,26,20,23,3.40
2008,03,26,20,24,3.40
2008,03,26,20,25,3.30
2008,03,26,20,26,3.30
2008,03,26,20,27,3.30
2008,03,26,20,28,3.30
2008,03,26,20,29,3.30
2008,03,26,20,30,3.30
2008,03,26,20,31,3.30
2008,03,26,20,32,3.30
2008,03,26,20,33,3.30